Home   Weather   Olde Washington Valley   Past weeks
Flag for USA

Past Weather in Olde Washington Valley, Maryland, USA — Yesterday and Last 2 Weeks

Now
75 °F

Rain. Overcast.


Feels Like: 74 °F
Forecast: 88 / 74 °F
Wind: 6 mph from Northwest

Location: Reagan National Airport

Current Time: Jun 25, 2019 at 4:06:46 am

Latest Report: Jun 25, 2019 at 2:52 am


Visibility: 8 mi

Pressure: 29.80 "Hg

Humidity: 90%

Dew Point: 72 °F

Location of Olde Washington ValleyLocation

Past Weather in Olde Washington Valley — Graph

°F

Olde Washington Valley Temperature Yesterday

Maximum temperature yesterday: 87 °F (at 1:52 pm)
Minimum temperature yesterday: 70 °F (at 4:52 am)
Average temperature yesterday: 78 °F

High & Low Weather Summary for the Past Weeks

 TemperatureHumidityPressure
High92 °F (Jun 20, 3:52 pm)94% (Jun 10, 2:52 am)30.19 "Hg (Jun 10, 2:52 am)
Low57 °F (Jun 14, 4:52 am)29% (Jun 14, 5:52 pm)29.50 "Hg (Jun 20, 6:18 pm)
Average75 °F66%29.91 "Hg
* Reported Jun 10 2:52 am — Jun 25 2:52 am, Olde Washington Valley. Weather by CustomWeather, © 2019

Note: Actual official high and low records may vary slightly from our data, if they occured in-between our weather recording intervals... More about our weather records

Advertising

Olde Washington Valley Weather History for the Previous 24 Hours

Scroll right to see more
 ConditionsComfort  
Time TempWeatherWind HumidityBarometerVisibility
2:52 am
Tue, Jun 25
75 °FRain. Overcast.6 mph90%29.80 "Hg8 mi
2:19 am76 °FStrong thunderstorms. Fog.13 mph88%29.81 "Hg3 mi
1:55 am77 °FThunderstorms. Overcast.6 mph85%29.77 "Hg10 mi
12:52 am76 °FOvercast.7 mph88%29.79 "Hg10 mi
11:52 pm
Mon, Jun 24
76 °FOvercast.7 mph85%29.80 "Hg10 mi
10:52 pm76 °FPassing clouds.5 mph88%29.81 "Hg10 mi
9:52 pm76 °FPassing clouds.7 mph85%29.81 "Hg10 mi
8:52 pm77 °FPartly cloudy.6 mph82%29.81 "Hg10 mi
7:52 pm80 °FBroken clouds.10 mph81%29.81 "Hg10 mi
6:52 pm80 °FLight rain. Cloudy.7 mph85%29.81 "Hg8 mi
5:52 pm82 °FLight rain. Cloudy.3 mph70%29.82 "Hg8 mi
4:52 pm85 °FLight rain. Cloudy.5 mph61%29.84 "Hg10 mi
3:52 pm86 °FCloudy.9 mph63%29.84 "Hg10 mi
2:52 pm87 °FBroken clouds.10 mph61%29.85 "Hg10 mi
1:52 pm87 °FPartly sunny.10 mph57%29.86 "Hg10 mi
12:52 pm84 °FPartly sunny.9 mph61%29.87 "Hg10 mi
11:52 am82 °FScattered clouds.9 mph60%29.89 "Hg10 mi
10:52 am80 °FScattered clouds.6 mph60%29.90 "Hg10 mi
9:52 am78 °FScattered clouds.8 mph66%29.91 "Hg10 mi
8:52 am76 °FScattered clouds.6 mph62%29.90 "Hg10 mi
7:52 am73 °FBroken clouds.7 mph66%29.91 "Hg10 mi
6:52 am71 °FPartly sunny.6 mph73%29.91 "Hg10 mi
5:52 am70 °FPartly sunny.7 mph73%29.89 "Hg10 mi
4:52 am70 °FPassing clouds.7 mph76%29.88 "Hg10 mi
Weather by CustomWeather, © 2019

See weather overview